EW4229 Weather Reports


Display with metric or nautical units.
time (UTC)temp
F
wind
direction
speed
MPH
gust
MPH
rain 1hr
in
rain 24hr
in
rain mn
in
humidity
%
barometer
mb
20260901104541 70 202 0.0 0.0 0.00 0.00 0.00 99 1016.0
20260901103039 0 0.0 0.0 0.00 0.00 0.00 1016.1
20260901101535 0 0.0 0.0 0.00 0.00 0.00 1015.8
20260901100032 0 0.0 0.0 0.00 0.00 0.00 1015.7
20260901094529 0 0.0 0.0 0.00 0.00 0.00 1015.6
20260901093024 0 0.0 0.0 0.00 0.00 0.00 1015.7
20260901091529 70 203 0.0 0.0 0.00 0.00 0.00 99 1015.7
20260901090018 0 0.0 0.0 0.00 0.00 0.00 1015.8
20260901084514 0 120 0.0 0.0 0.00 0.00 0.00 1016.0
20260901083012 0 0.0 0.0 0.00 0.00 0.00 1016.1
20260901081509 69 199 0.0 0.0 0.00 0.00 0.00 99 1016.2
20260901080006 69 199 0.0 0.0 0.00 0.00 0.00 99 1016.2
20260901074506 69 199 0.0 0.0 0.00 0.00 0.00 99 1016.4
20260901073013 69 199 0.0 0.0 0.00 0.00 0.00 99 1016.4
20260901071505 69 199 0.0 0.0 0.00 0.00 0.00 99 1016.3
20260901070007 69 199 0.0 0.0 0.00 0.00 0.00 99 1016.1
20260901064508 70 199 0.0 0.0 0.00 0.00 0.00 99 1016.4
20260901063001 69 199 0.0 0.0 0.00 0.00 0.00 99 1016.6
20260901061557 0 0.0 0.0 0.00 0.00 0.00 1016.7
20260901060055 70 199 0.0 0.0 0.00 0.00 0.00 1016.7
20260901054550 0 0.0 0.0 0.00 0.00 0.00 1016.9
20260901053105 0 0.0 0.0 0.00 0.00 0.00 1017.0
20260901051544 70 199 0.0 0.0 0.00 0.00 0.00 99 1017.2
20260901050042 70 199 0.0 0.0 0.00 0.00 0.00 99 1017.1
20260901044546 70 199 0.0 0.0 0.00 0.00 0.00 99 1017.2
20260901043051 70 199 0.0 0.0 0.00 0.00 0.00 99 1017.3
20260901041535 70 199 0.0 0.0 0.00 0.00 0.00 99 1017.3
20260901040044 71 199 0.0 0.0 0.00 0.00 0.00 99 1017.4
20260901034540 0 0.0 0.0 0.00 0.00 0.00 1017.3
20260901033048 0 0.0 0.0 0.00 0.00 0.00 1017.6
20260901031527 0 0.0 0.0 0.00 0.00 0.00 1017.5
20260901030026 71 199 0.0 0.0 0.00 0.00 0.00 1017.6
20260901024526 0 0.0 0.0 0.00 0.00 0.00 1017.7
20260901023016 0 0.0 0.0 0.00 0.00 0.00 1017.8
20260901021518 73 199 0.0 0.0 0.00 0.00 0.00 93 1018.0
20260901020012 73 199 0.0 0.0 0.00 0.00 0.00 92 1017.8
20260901014511 73 199 0.0 0.0 0.00 0.00 0.00 93 1017.6
20260901013011 73 199 0.0 0.0 0.00 0.00 0.00 91 1017.4
20260901011509 74 158 0.0 0.0 0.00 0.00 0.00 91 1017.4
20260901010010 74 158 0.0 0.0 0.00 0.00 0.00 90 1017.2
20260901004509 74 158 0.0 0.0 0.00 0.00 0.00 88 1017.0
20260901003012 74 158 0.0 0.0 0.00 0.00 0.00 88 1017.1
20260901001515 74 158 0.0 0.0 0.00 0.00 0.00 87 1017.0
20260901000009 75 158 0.0 0.0 0.00 0.00 0.00 86 1017.0
20260831234523 75 158 0.0 0.0 0.00 0.00 0.00 84 1017.0
20260831233007 76 158 0.0 0.0 0.00 0.00 0.00 82 1017.0
20260831231507 77 158 0.0 0.0 0.00 0.00 0.00 81 1017.1
20260831230013 78 158 0.0 0.0 0.00 0.00 0.00 80 1017.0
20260831224510 79 148 0.0 1.0 0.00 0.00 0.00 79 1017.2
20260831223010 78 150 0.0 4.0 0.00 0.00 0.00 77 1017.1
20260831221520 79 141 0.0 3.0 0.00 0.00 0.00 78 1017.2
20260831220005 80 108 0.0 2.0 0.00 0.00 0.00 80 1017.4
20260831214602 78 137 0.0 0.0 0.00 0.00 0.00 83 1017.5
20260831213105 78 137 0.0 0.0 0.00 0.00 0.00 83 1017.7
20260831211557 79 139 0.0 2.0 0.00 0.00 0.00 79 1017.7
20260831210057 80 98 0.0 3.0 0.00 0.00 0.00 78 1017.9
20260831204600 80 82 1.0 4.0 0.00 0.00 0.00 79 1017.8
20260831203118 80 92 0.0 5.0 0.00 0.00 0.00 79 1018.0
20260831201554 80 107 0.0 4.0 0.00 0.00 0.00 78 1018.0
20260831200055 79 134 1.0 3.0 0.00 0.00 0.00 76 1018.2
20260831194551 79 143 0.0 3.0 0.00 0.00 0.00 78 1018.2
20260831193053 80 135 0.0 4.0 0.00 0.00 0.00 76 1018.3
20260831191550 80 143 0.0 3.0 0.00 0.00 0.00 74 1018.5
20260831190111 80 92 0.0 1.0 0.00 0.00 0.00 73 1018.7
20260831184549 79 139 0.0 1.0 0.00 0.00 0.00 76 1018.9
20260831183047 79 134 0.0 1.0 0.00 0.00 0.00 77 1018.9
20260831181555 79 110 0.0 3.0 0.00 0.00 0.00 75 1018.9
20260831180044 79 121 0.0 1.0 0.00 0.00 0.00 73 1019.1
20260831174550 79 141 0.0 2.0 0.00 0.00 0.00 73 1019.1
20260831173042 79 310 0.0 3.0 0.00 0.00 0.00 72 1019.3
20260831171543 79 156 0.0 3.0 0.00 0.00 0.00 73 1019.3
20260831170041 79 150 0.0 3.0 0.00 0.00 0.00 74 1019.5
20260831164538 78 189 0.0 7.0 0.00 0.00 0.00 74 1019.6
20260831163036 79 87 1.0 4.0 0.00 0.00 0.00 73 1019.4
20260831161533 78 203 0.0 5.0 0.00 0.00 0.00 76 1019.4
20260831160042 77 135 0.0 3.0 0.00 0.00 0.00 78 1019.6
20260831154532 77 137 0.0 3.0 0.00 0.00 0.00 78 1019.7
20260831153051 0 0.0 0.0 0.00 0.00 0.00 1019.8
20260831151524 0 0.0 0.0 0.00 0.00 0.00 1019.8
20260831150022 0 0.0 0.0 0.00 0.00 0.00 1019.6
20260831144516 0 0.0 0.0 0.00 0.00 0.00 1019.9
20260831143012 0 29 0.0 0.0 0.00 0.00 0.00 1019.9
20260831141517 75 136 2.0 4.0 0.00 0.00 0.00 79 1020.3
20260831140010 75 124 1.0 3.0 0.00 0.00 0.00 79 1020.1
20260831134507 75 137 0.0 4.0 0.00 0.00 0.00 81 1020.1
20260831133003 0 0.0 0.0 0.00 0.00 0.00 1020.3
20260831131603 73 88 0.0 0.0 0.00 0.00 0.00 86 1020.1
20260831130119 73 95 0.0 0.0 0.00 0.00 0.00 86 1020.1
20260831124602 73 56 0.0 0.0 0.00 0.00 0.00 88 1019.9
20260831123057 72 290 0.0 0.0 0.00 0.00 0.00 90 1019.8
20260831121557 71 290 0.0 0.0 0.00 0.00 0.00 91 1019.8
20260831120142 71 8 0.0 0.0 0.00 0.00 0.00 91 1019.8
20260831114553 70 8 0.0 1.0 0.00 0.00 0.00 91 1019.8
20260831113057 70 9 0.0 1.0 0.00 0.00 0.00 92 1019.6
20260831111558 69 9 0.0 1.0 0.00 0.00 0.00 92 1019.5
20260831110049 69 9 0.0 0.0 0.00 0.00 0.00 92 1019.3